Hostetter, PA

12:02 PM EDT on July 23, 2016 (GMT -0400)
Arnold Palmer Regional

Weather History for KLBE - August, 2014

Change the Weather History Date:

Sunday, August 17, 2014

  Actual Average Record
Temperature  
Mean Temperature 72 °F -  
Max Temperature 78 °F 80 °F 89 °F (1999)
Min Temperature 66 °F 60 °F 53 °F (2013)
Cooling Degree Days 7    
Growing Degree Days 22 (Base 50)    
Moisture  
Dew Point 64 °F    
Average Humidity 84    
Maximum Humidity 100    
Minimum Humidity 57    
Precipitation  
Precipitation 0.00 in - - ()
Sea Level Pressure  
Sea Level Pressure 29.98 in    
Wind  
Wind Speed 8 mph (SW)    
Max Wind Speed 12 mph    
Max Gust Speed -    
Visibility 10 miles    
Events Rain    
Averages and records for this station are not official NWS values.
T = Trace of Precipitation, MM = Missing Value Source: NWS Daily Summary

Daily Weather History Graph

Daily Weather History Graph

Search for Another Location

Airport or City:

Trip Planner

Search our weather history database for the weather conditions in past years. The results will help you decide how hot, cold, wet, or windy it might be!

Date:

Astronomy

Aug. 17, 2014 Rise Set
Actual Time 6:30 AM EDT 8:11 PM EDT
Civil Twilight 6:01 AM EDT 8:40 PM EDT
Nautical Twilight 5:26 AM EDT 9:15 PM EDT
Astronomical Twilight 4:49 AM EDT 9:53 PM EDT
Moon No Moon Rise 2:15 PM EDT (8/17)
Length of Visible Light 14h 39m
Length of Day
13h 41m
Waning Gibbous, 48% of the Moon is Illuminated
Aug 17
Waning Gibbous
Aug 25
New
Sep 2
First Quarter
Sep 8
Full
Sep 15
Last Quarter

Hourly Weather History & Observations

Time (EDT) Temp. Dew Point Humidity Pressure Visibility Wind Dir Wind Speed Gust Speed Precip Events Conditions
12:15 AM 68.0 °F 59.0 °F 73% 29.99 in 10.0 mi SSW 6.9 mph - 0.00 in   Mostly Cloudy
12:35 AM 69.8 °F 59.0 °F 68% 29.98 in 10.0 mi SSW 6.9 mph - 0.00 in   Overcast
12:55 AM 66.2 °F 60.8 °F 83% 29.98 in 10.0 mi SSW 9.2 mph - 0.00 in   Overcast
1:15 AM 68.0 °F 60.8 °F 78% 29.98 in 10.0 mi SSW 11.5 mph - 0.00 in   Overcast
1:55 AM 68.0 °F 60.8 °F 78% 29.97 in 10.0 mi SSW 9.2 mph - 0.00 in   Overcast
2:15 AM 68.0 °F 60.8 °F 78% 29.97 in 10.0 mi SSW 10.4 mph - 0.00 in   Overcast
2:35 AM 68.0 °F 60.8 °F 78% 29.97 in 10.0 mi SSW 11.5 mph - 0.00 in   Mostly Cloudy
2:55 AM 68.0 °F 62.6 °F 83% 29.97 in 10.0 mi SSW 9.2 mph - 0.00 in   Mostly Cloudy
3:15 AM 66.2 °F 62.6 °F 88% 29.97 in 10.0 mi SW 8.1 mph - 0.00 in   Overcast
3:35 AM 66.2 °F 62.6 °F 88% 29.97 in 10.0 mi SSW 6.9 mph - 0.00 in   Overcast
3:55 AM 66.2 °F 62.6 °F 88% 29.97 in 10.0 mi South 8.1 mph - 0.00 in   Overcast
4:15 AM 66.2 °F 62.6 °F 88% 29.97 in 10.0 mi SSW 8.1 mph - 0.00 in   Mostly Cloudy
4:35 AM 66.2 °F 62.6 °F 88% 29.96 in 10.0 mi SSW 9.2 mph - 0.00 in   Overcast
4:55 AM 66.2 °F 62.6 °F 88% 29.96 in 10.0 mi South 10.4 mph - 0.00 in   Overcast
5:15 AM 68.0 °F 62.6 °F 83% 29.96 in 10.0 mi South 10.4 mph - 0.00 in   Overcast
5:35 AM 68.0 °F 62.6 °F 83% 29.96 in 10.0 mi SSW 10.4 mph - 0.00 in   Scattered Clouds
5:55 AM 66.2 °F 62.6 °F 88% 29.97 in 10.0 mi SSW 9.2 mph - 0.00 in   Scattered Clouds
6:47 AM 66.2 °F 64.4 °F 94% 29.98 in 10.0 mi SW 11.5 mph - N/A   Overcast
7:45 AM 66.2 °F 64.4 °F 94% 30.00 in 5.0 mi SW 11.5 mph - N/A   Overcast
8:50 AM 68.0 °F 66.2 °F 94% 30.01 in 4.0 mi SW 9.2 mph - N/A   Overcast
9:47 AM 68.0 °F 66.2 °F 94% 30.01 in 5.0 mi SW 6.9 mph - N/A   Overcast
10:07 AM 68.0 °F 68.0 °F 100% 30.02 in 4.0 mi SW 6.9 mph - N/A Rain Light Rain
10:45 AM 68.0 °F 68.0 °F 100% 30.02 in 5.0 mi Calm Calm - N/A   Overcast
11:50 AM 71.6 °F 68.0 °F 88% 30.02 in 6.0 mi Calm Calm - N/A   Mostly Cloudy
12:50 PM 73.4 °F 66.2 °F 78% 30.01 in 15.0 mi West 9.2 mph - N/A   Mostly Cloudy
1:50 PM 75.2 °F 66.2 °F 73% 30.00 in 15.0 mi NW 11.5 mph - N/A   Mostly Cloudy
2:50 PM 77.0 °F 64.4 °F 65% 29.98 in 15.0 mi NW 9.2 mph - N/A   Mostly Cloudy
3:50 PM 78.8 °F 62.6 °F 57% 29.97 in 20.0 mi WNW 9.2 mph - N/A   Mostly Cloudy
4:50 PM 78.8 °F 64.4 °F 61% 29.97 in 15.0 mi NW 9.2 mph - N/A   Mostly Cloudy
5:50 PM 77.0 °F 64.4 °F 65% 29.97 in 15.0 mi West 6.9 mph - N/A   Scattered Clouds
8:50 PM 71.6 °F 62.6 °F 73% 29.98 in 15.0 mi Calm Calm - N/A   Partly Cloudy
10:15 PM 66.2 °F 64.4 °F 94% 30.00 in 10.0 mi Calm Calm - 0.00 in   Mostly Cloudy
10:35 PM 66.2 °F 64.4 °F 94% 29.99 in 10.0 mi Calm Calm - 0.00 in   Mostly Cloudy
10:55 PM 66.2 °F 64.4 °F 94% 29.99 in 10.0 mi Calm Calm - 0.00 in   Overcast
11:15 PM 66.2 °F 64.4 °F 94% 29.99 in 10.0 mi Calm Calm - 0.00 in   Overcast
11:35 PM 66.2 °F 64.4 °F 94% 29.99 in 10.0 mi Calm Calm - 0.00 in   Overcast
11:55 PM 66.2 °F 64.4 °F 94% 29.98 in 10.0 mi Calm Calm - 0.00 in   Overcast